Terug naar catalogus

STARLINK-31620

ActiefCommunicatieVLEO
NORAD 59460·PAYLOAD·🇺🇸 United States

Gelanceerd Apr 10, 2024 vanaf Cape Canaveral Space Force Station

Loading…

Volgende Passages (komende 24 uur)

TLE

VersSource: CelesTrak SupGP

Epoch: Sep 15, 2026, 02:55 UTC

1 59460C 24068F   26258.12201389 -.00018900  00000+0 -68442-3 0  2587
2 59460  43.0042  41.2457 0001625 272.8810  97.7937 15.27594268    16

Volg STARLINK-31620 in realtime met AllMySat

Download on the App Store